Time,TemperatureF,DewpointF,PressureIn,WindDirection,WindDirectionDegrees,WindSpeedMPH,WindSpeedGustMPH,Humidity,HourlyPrecipIn,Conditions,Clouds,dailyrainin,SoftwareType,DateUTC
2013-02-01 00:52:00,43.0,-99.9,-100.00,NE,48,4.0,6.0,-999,-99.99,,,-99.99,,2013-02-01 06:52:00,
2013-02-01 01:02:00,43.0,-99.9,-100.00,NE,48,4.0,6.0,-999,-99.99,,,-99.99,,2013-02-01 07:02:00,
2013-02-01 04:50:00,35.0,-99.9,-100.00,NE,50,1.0,4.0,-999,-99.99,,,-99.99,,2013-02-01 10:50:00,
2013-02-01 04:53:00,38.0,-99.9,-100.00,NNE,32,5.0,6.0,-999,-99.99,,,-99.99,,2013-02-01 10:53:00,
2013-02-01 05:03:00,38.0,-99.9,-100.00,NNE,32,5.0,6.0,-999,-99.99,,,-99.99,,2013-02-01 11:03:00,
2013-02-01 05:32:00,35.0,-99.9,-100.00,NE,50,1.0,4.0,-999,-99.99,,,-99.99,,2013-02-01 11:32:00,
2013-02-01 05:42:00,35.0,-99.9,-100.00,NE,50,1.0,4.0,-999,-99.99,,,-99.99,,2013-02-01 11:42:00,
2013-02-01 07:20:00,35.0,-99.9,-100.00,East,92,1.0,5.0,-999,-99.99,,,-99.99,,2013-02-01 13:20:00,
2013-02-01 07:33:00,35.0,-99.9,-100.00,NW,321,6.0,6.0,-999,-99.99,,,-99.99,,2013-02-01 13:33:00,
2013-02-01 07:43:00,35.0,-99.9,-100.00,NW,321,6.0,6.0,-999,-99.99,,,-99.99,,2013-02-01 13:43:00,
2013-02-01 08:04:00,35.0,-99.9,-100.00,East,92,1.0,5.0,-999,-99.99,,,-99.99,,2013-02-01 14:04:00,
2013-02-01 08:12:00,35.0,-99.9,-100.00,East,92,1.0,5.0,-999,-99.99,,,-99.99,,2013-02-01 14:12:00,
2013-02-01 11:10:00,58.0,-99.9,-100.00,SSE,157,8.0,13.0,-999,-99.99,,,-99.99,,2013-02-01 17:10:00,
2013-02-01 11:53:00,58.0,-99.9,-100.00,SSE,157,8.0,13.0,-999,-99.99,,,-99.99,,2013-02-01 17:53:00,
2013-02-01 12:03:00,58.0,-99.9,-100.00,SSE,157,8.0,13.0,-999,-99.99,,,-99.99,,2013-02-01 18:03:00,
2013-02-01 15:10:00,65.0,-99.9,-100.00,SW,215,9.0,11.0,-999,-99.99,,,-99.99,,2013-02-01 21:10:00,
2013-02-01 15:53:00,65.0,-99.9,-100.00,SW,215,9.0,11.0,-999,-99.99,,,-99.99,,2013-02-01 21:53:00,
2013-02-01 16:03:00,65.0,-99.9,-100.00,SW,215,9.0,11.0,-999,-99.99,,,-99.99,,2013-02-01 22:03:00,
2013-02-01 19:03:00,59.0,-99.9,-100.00,West,281,9.0,12.0,-999,-99.99,,,-99.99,,2013-02-02 01:03:00,
2013-02-01 19:11:00,59.0,-99.9,-100.00,West,281,9.0,12.0,-999,-99.99,,,-99.99,,2013-02-02 01:11:00,
2013-02-01 23:03:00,45.0,-99.9,-100.00,North,353,4.0,5.0,-999,-99.99,,,-99.99,,2013-02-02 05:03:00,
2013-02-01 23:12:00,45.0,-99.9,-100.00,North,353,4.0,5.0,-999,-99.99,,,-99.99,,2013-02-02 05:12:00,